Varna, Bulgaria

8:19 AM EET on March 20, 2019 (GMT +0200)
Varna

Weather History for LBWN - March, 2019

Change the Weather History Date:

Wednesday, March 20, 2019

  Actual Average Record
Temperature  
Mean Temperature 46 °F -  
Max Temperature 47 °F 55 °F 77 °F (2004)
Min Temperature 45 °F 42 °F 26 °F (2005)
Degree Days  
Heating Degree Days 19    
Moisture  
Dew Point 44 °F    
Average Humidity 92    
Maximum Humidity 100    
Minimum Humidity 79    
Precipitation  
Precipitation 0.00 in 0.05 in - ()
Sea Level Pressure  
Sea Level Pressure 30.17 in    
Wind  
Wind Speed 3 mph ()    
Max Wind Speed 6 mph    
Max Gust Speed -    
Visibility 6.2 miles    
Events      
Averages and records for this station are not official NWS values.
T = Trace of Precipitation, MM = Missing Value Source: Averaged Metar Reports

Daily Weather History Graph

Daily Weather History Graph

Search for Another Location

Airport or City:

Astronomy

Mar. 20, 2019 Rise Set
Actual Time 6:12 AM EET 6:20 PM EET
Civil Twilight 5:44 AM EET 6:48 PM EET
Nautical Twilight 5:10 AM EET 7:21 PM EET
Astronomical Twilight 4:36 AM EET 7:55 PM EET
Moon 5:38 PM EET 6:08 AM EET
Length of Visible Light 13h 04m
Length of Day
12h 07m
Waxing Gibbous, 99% of the Moon is Illuminated
Today
Waxing Gibbous
Mar 21
Full
Mar 28
Last Quarter
Apr 5
New
Apr 12
First Quarter

Hourly Weather History & Observations

Time (EET) Temp. Windchill Dew Point Humidity Pressure Visibility Wind Dir Wind Speed Gust Speed Precip Events Conditions
12:00 AM 46.4 °F 44.3 °F 44.6 °F 93% 30.12 in 6.2 mi East 4.6 mph - N/A   Scattered Clouds
12:30 AM 46.4 °F - 44.6 °F 93% 30.12 in 6.2 mi SE 2.3 mph - N/A   Overcast
1:00 AM 46.4 °F - 44.6 °F 93% 30.15 in 6.2 mi Variable 2.3 mph - N/A   Overcast
1:30 AM 46.4 °F - 44.6 °F 93% 30.15 in 6.2 mi Variable 2.3 mph - N/A   Overcast
2:00 AM 47 °F - 44 °F 86% 30.17 in 6 mi ESE 2.2 mph - -   Overcast
2:00 AM 46.4 °F 43.5 °F 44.6 °F 93% 30.15 in 6.2 mi NE 5.8 mph - N/A   Overcast
2:30 AM 46.4 °F 43.5 °F 44.6 °F 93% 30.15 in 6.2 mi NE 5.8 mph - N/A   Overcast
3:00 AM 46.4 °F 44.3 °F 44.6 °F 93% 30.15 in 6.2 mi NE 4.6 mph - N/A   Overcast
3:30 AM 44.6 °F 42.2 °F 44.6 °F 100% 30.15 in 6.2 mi NE 4.6 mph - N/A   Overcast
4:00 AM 44.6 °F 42.2 °F 44.6 °F 100% 30.15 in 6.2 mi NNE 4.6 mph - N/A   Overcast
4:30 AM 44.6 °F 42.2 °F 42.8 °F 93% 30.18 in 6.2 mi NNE 4.6 mph - N/A   Overcast
5:00 AM 46 °F - 44 °F 88% 30.19 in 6 mi ENE 2.2 mph - -   Overcast
5:00 AM 44.6 °F 41.4 °F 42.8 °F 93% 30.18 in 6.2 mi NE 5.8 mph - N/A   Overcast
5:30 AM 44.6 °F 42.2 °F 42.8 °F 93% 30.18 in 6.2 mi North 4.6 mph - N/A   Overcast
6:00 AM 44.6 °F - 42.8 °F 93% 30.18 in 6.2 mi Calm Calm - N/A   Overcast
6:30 AM 44.6 °F 41.4 °F 42.8 °F 93% 30.21 in 6.2 mi NE 5.8 mph - N/A   Overcast
7:00 AM 46.4 °F 45.2 °F 42.8 °F 87% 30.21 in 6.2 mi NNE 3.5 mph - N/A   Overcast
7:30 AM 46.4 °F 43.5 °F 42.8 °F 87% 30.21 in 6.2 mi NE 5.8 mph - N/A   Overcast
8:00 AM 47 °F - 42 °F 79% 30.24 in 6 mi NE 2.2 mph - -   Overcast
8:00 AM 46.4 °F 43.5 °F 42.8 °F 87% 30.24 in 6.2 mi NNE 5.8 mph - N/A   Overcast